Regional Weather Roundup
Issued by NWS Sioux Falls, SD

Home | Current Version | Previous Version | Text Only | Print | Product List | Glossary On
Versions: 1 2 3 4 5 6 7 8 9 10 11 12 13 14 15 16 17 18 19 20 21 22 23 24 25 26 27 28 29 30 31 32 33 34 35 36 37 38 39 40 41 42 43 44 45 46 47 48 49 50
000
ASUS43 KFSD 232110
RWRFSD

WEATHER ROUNDUP FOR SE SOUTH DAKOTA/SW MINNESOTA/NW IOWA
NATIONAL WEATHER SERVICE SIOUX FALLS SD
400 PM CDT TUE AUG 23 2016

NOTE: "FAIR" INDICATES FEW OR NO CLOUDS BELOW 12,000 FEET WITH NO
SIGNIFICANT WEATHER AND OR OBSTRUCTIONS TO VISIBILITY.


SDZ038>040-050-052>070-232200-
SOUTHEAST SOUTH DAKOTA

CITY           SKY/WX    TMP DP  RH WIND       PRES   REMARKS
BROOKINGS      LGT RAIN  71  68  90 S13       29.81F
CHAMBERLAIN    SUNNY     90  58  34 W15       29.74R
HURON          PTSUNNY   82  69  64 S17G24    29.73S
MADISON        MOCLDY    72  72 100 S13G18    29.82R
MITCHELL       CLOUDY    79  69  71 S13       29.76F
SIOUX FALLS    CLOUDY    71  66  84 S13       29.83R
WINNER         FAIR      87  55  33 NW17G25   29.79R
YANKTON        CLOUDY    75  68  78 SE12      29.78F
$$

MNZ071-072-080-081-089-090-097-098-232200-
SOUTHWEST MINNESOTA

CITY           SKY/WX    TMP DP  RH WIND       PRES   REMARKS
FAIRMONT       CLOUDY    76  69  79 S16       29.90R
JACKSON        TSTM      73  68  83 S13       29.89F
LUVERNE        CLOUDY    64  63  94 S8        29.87R
MARSHALL       CLOUDY    76  69  79 S12       29.83S
MONTEVIDEO     CLOUDY    82  70  65 SW12      29.84R
PIPESTONE      CLOUDY    72  66  83 S13G18    29.85S
REDWOOD FALLS  PTSUNNY   79  70  74 SE13      29.84F
TRACY          CLOUDY    74  71  91 SE10      29.83F
WINDOM         TSTM      73  70  88 SE12      29.86F
WORTHINGTON    LGT RAIN  67  64  90 S20G30    29.88R
$$

IAZ001>003-012>014-020>022-031-032-NEZ013-014-SDZ071-232200-
NORTHWEST IOWA

CITY           SKY/WX    TMP DP  RH WIND       PRES   REMARKS
CHEROKEE       CLOUDY    67  67 100 S6        29.87F
DENISON        CLOUDY    75  72  88 S16G31    29.86S
ESTHERVILLE    TSTM      63  63 100 S17       29.90R FOG
LE MARS        CLOUDY    70  66  88 SE9       29.85S
ORANGE CITY    LGT RAIN  64  64 100 SE5       29.87R
SHELDON        CLOUDY    64  64 100 SE9       29.86S
SIOUX CITY     CLOUDY    76  70  82 SE15      29.81F
SPENCER        TSTM      65  62  90 S10       29.91S
STORM LAKE     CLOUDY    68  66  94 SE8       29.90R FOG
$$

ABBREVIATIONS USED IN REMARKS
   TC - TEMPERATURE IN CELSIUS
  WCI - WIND CHILL INDEX
   HX - HEAT INDEX
  VSB - VISIBILITY




USA.gov is the U.S. government's official web portal to all federal, state and local government web resources and services.